Regional Weather Roundup
Issued by NWS

Current Version | Previous Version | Text Only | Print | Product List | Glossary On
Versions: 1 2 3 4 5 6 7 8 9 10 11 12 13 14 15 16 17 18 19 20 21 22 23 24 25 26 27
000
ASUS44 KBMX 210110
RWRAL

ALABAMA REGIONAL WEATHER ROUNDUP
NATIONAL WEATHER SERVICE BIRMINGHAM AL
800 PM CDT SUN APR 20 2014

NOTE: "FAIR" INDICATES FEW OR NO CLOUDS BELOW 12,000 FEET
WITH NO SIGNIFICANT WEATHER AND/OR OBSTRUCTIONS TO VISIBILITY.

THE REMARK "TC" DENOTES TEMPERATURE IN DEGREES CELSIUS.

ALZ001>011-014-016>018-020-210200-
NORTH ALABAMA

CITY           SKY/WX    TMP DP  RH WIND       PRES   REMARKS
MUSCLE SHOALS  PTCLDY    65  47  52 CALM      30.13R
HUNTSVILLE     PTCLDY    69  47  45 CALM      30.12R
DECATUR        CLEAR     64  52  64 CALM      30.12S
HALEYVILLE     FAIR      63  52  67 CALM      30.16R
GADSDEN        NOT AVBL
$$

ALZ012-013-022-023-030>036-040>044-210200-
WEST CENTRAL ALABAMA

CITY           SKY/WX    TMP DP  RH WIND       PRES   REMARKS
TUSCALOOSA     CLEAR     66  53  63 CALM      30.11R
$$

ALZ015-024>027-033>036-040>044-210200-
CENTRAL ALABAMA

CITY           SKY/WX    TMP DP  RH WIND       PRES   REMARKS
BIRMINGHAM     MOCLDY    68  47  46 CALM      30.14R
MONTGOMERY     CLEAR     67  56  67 CALM      30.12R
SHELBY CO ARPT MOCLDY    66  54  65 CALM      30.12R
MAXWELL AFB    PTCLDY    69  61  74 W1        30.11R
GREENVILLE     FAIR      64  56  75 CALM      30.12R
$$

ALZ019-021-028-029-037-038-045>048-210200-
EAST CENTRAL ALABAMA

CITY           SKY/WX    TMP DP  RH WIND       PRES   REMARKS
ANNISTON       PTCLDY    64  51  62 CALM      30.12R
ALEXANDER CITY PTCLDY    68  55  62 CALM      30.14R
AUBURN         PTCLDY    63  50  63 CALM      30.16S
$$

ALZ051>064-210200-
SOUTHWEST ALABAMA

CITY           SKY/WX    TMP DP  RH WIND       PRES   REMARKS
MOBILE         PTCLDY    66  56  70 E3        30.14R
BROOKLEY FIELD CLEAR     66  58  75 E7        30.14R
EVERGREEN      CLEAR     62  56  80 CALM      30.15R
$$

ALZ049-050-065>069-210200-
SOUTHEAST ALABAMA

CITY           SKY/WX    TMP DP  RH WIND       PRES   REMARKS
DOTHAN         CLEAR     59  54  83 CALM      30.16R
OZARK          CLEAR     59  55  88 E3        30.13R
TROY           CLEAR     63  56  78 CALM      30.13R
EUFAULA        FAIR      59  56  89 CALM      30.12R
$$



USA.gov is the U.S. government's official web portal to all federal, state and local government web resources and services.